EW8714 Weather Reports


Display with metric or nautical units.
time (UTC)temp
F
wind
direction
speed
MPH
gust
MPH
rain 1hr
in
rain 24hr
in
rain mn
in
humidity
%
barometer
mb
20260901105017 62 196 3.0 6.0 0.00 0.04 0.00 88 1019.3
20260901104534 62 194 3.0 5.0 0.00 0.04 0.00 88 1019.5
20260901104015 62 195 3.0 5.0 0.00 0.04 0.00 88 1019.5
20260901103514 62 193 3.0 5.0 0.00 0.04 0.00 88 1019.6
20260901103014 62 193 2.0 4.0 0.00 0.04 0.00 88 1019.7
20260901102513 62 193 2.0 4.0 0.00 0.04 0.00 88 1019.8
20260901102013 62 194 1.0 4.0 0.00 0.04 0.00 88 1019.8
20260901101521 62 195 0.0 3.0 0.00 0.04 0.00 88 1019.9
20260901101016 62 195 1.0 3.0 0.00 0.04 0.00 88 1019.9
20260901100517 62 195 0.0 2.0 0.00 0.04 0.00 88 1020.1
20260901100015 62 195 0.0 3.0 0.00 0.04 0.00 88 1020.1
20260901095514 62 195 2.0 4.0 0.00 0.04 0.00 88 1020.1
20260901095015 62 196 2.0 5.0 0.00 0.04 0.00 87 1020.3
20260901094517 62 196 3.0 5.0 0.00 0.04 0.00 88 1020.3
20260901094016 62 196 3.0 5.0 0.00 0.04 0.00 87 1020.3
20260901093518 62 196 3.0 5.0 0.00 0.04 0.00 87 1020.4
20260901093016 62 196 3.0 4.0 0.00 0.04 0.00 87 1020.3
20260901092515 62 196 2.0 4.0 0.00 0.04 0.00 87 1020.3
20260901092015 62 196 2.0 5.0 0.00 0.04 0.00 88 1020.4
20260901091518 62 195 3.0 5.0 0.00 0.04 0.00 88 1020.4
20260901091013 62 195 2.0 4.0 0.00 0.04 0.00 88 1020.4
20260901090513 62 195 1.0 4.0 0.00 0.04 0.00 87 1020.4
20260901090024 62 195 1.0 4.0 0.00 0.04 0.00 87 1020.5
20260901085517 62 195 2.0 5.0 0.00 0.04 0.00 87 1020.4
20260901085017 62 194 2.0 5.0 0.00 0.04 0.00 87 1020.6
20260901084514 62 193 2.0 4.0 0.00 0.04 0.00 87 1020.6
20260901084014 62 193 1.0 2.0 0.00 0.04 0.00 86 1020.7
20260901083517 63 193 1.0 2.0 0.00 0.04 0.00 86 1020.6
20260901083019 63 193 0.0 2.0 0.00 0.04 0.00 87 1020.6
20260901082514 63 193 0.0 2.0 0.00 0.04 0.00 87 1020.6
20260901082014 63 193 0.0 2.0 0.00 0.04 0.00 87 1020.8
20260901081517 63 193 1.0 2.0 0.00 0.04 0.00 87 1021.0
20260901081017 63 193 1.0 3.0 0.00 0.04 0.00 87 1021.0
20260901080517 63 193 1.0 3.0 0.00 0.04 0.00 87 1020.8
20260901080017 63 193 0.0 2.0 0.00 0.04 0.00 87 1020.9
20260901075515 63 193 0.0 2.0 0.00 0.04 0.00 87 1020.9
20260901075014 63 193 1.0 2.0 0.00 0.04 0.00 86 1020.9
20260901074519 63 193 0.0 2.0 0.00 0.04 0.00 86 1021.0
20260901074020 63 193 1.0 2.0 0.00 0.04 0.00 86 1021.3
20260901073519 63 193 0.0 3.0 0.00 0.04 0.00 86 1021.3
20260901073020 63 193 0.0 4.0 0.00 0.04 0.00 85 1021.3
20260901072519 63 193 0.0 4.0 0.00 0.04 0.00 85 1021.3
20260901072022 63 193 2.0 5.0 0.00 0.04 0.00 85 1021.7
20260901071517 63 193 2.0 5.0 0.00 0.04 0.00 84 1021.8
20260901071016 63 193 1.0 3.0 0.00 0.04 0.00 84 1021.8
20260901070515 63 193 1.0 3.0 0.00 0.04 0.00 84 1021.6
20260901070019 63 193 0.0 2.0 0.00 0.04 0.00 83 1021.7
20260901065519 63 193 0.0 4.0 0.00 0.04 0.00 83 1021.5
20260901065018 63 193 2.0 4.0 0.00 0.04 0.00 83 1021.3
20260901064521 63 197 2.0 4.0 0.00 0.04 0.00 83 1021.3
20260901064017 63 198 0.0 3.0 0.00 0.04 0.00 82 1021.5
20260901063515 63 198 0.0 5.0 0.00 0.04 0.00 82 1021.6
20260901063020 63 198 3.0 5.0 0.00 0.04 0.00 82 1022.0
20260901062518 63 199 1.0 6.0 0.00 0.04 0.00 82 1022.0
20260901062019 62 200 2.0 6.0 0.00 0.04 0.00 83 1021.8
20260901061519 62 276 1.0 2.0 0.00 0.04 0.00 82 1021.5
20260901061018 62 278 1.0 2.0 0.00 0.04 0.00 82 1021.5
20260901060517 62 278 0.0 2.0 0.00 0.04 0.00 82 1021.5
20260901060015 62 278 0.0 1.0 0.00 0.04 0.00 82 1021.2
20260901055515 62 278 0.0 1.0 0.00 0.04 0.04 82 1020.9
20260901055019 62 278 0.0 2.0 0.00 0.04 0.04 83 1020.8
20260901054520 62 278 1.0 3.0 0.00 0.04 0.04 83 1021.0
20260901054019 62 278 1.0 3.0 0.00 0.04 0.04 82 1021.1
20260901053519 62 278 1.0 3.0 0.00 0.04 0.04 82 1021.1
20260901053018 62 278 1.0 3.0 0.00 0.04 0.04 82 1021.0
20260901052517 62 278 1.0 3.0 0.00 0.04 0.04 81 1021.1
20260901052021 63 278 0.0 3.0 0.00 0.04 0.04 81 1021.1
20260901051516 63 278 1.0 3.0 0.00 0.04 0.04 80 1021.0
20260901051017 63 278 1.0 3.0 0.00 0.04 0.04 80 1021.0
20260901050516 63 278 1.0 4.0 0.00 0.04 0.04 80 1020.9
20260901050021 63 278 2.0 4.0 0.00 0.04 0.04 79 1021.0
20260901045520 64 278 1.0 4.0 0.00 0.04 0.04 78 1021.1
20260901045025 64 278 1.0 5.0 0.00 0.04 0.04 78 1021.1
20260901044521 64 276 3.0 7.0 0.00 0.04 0.04 77 1020.9
20260901044020 64 264 4.0 9.0 0.00 0.04 0.04 76 1021.1
20260901043524 64 289 3.0 9.0 0.00 0.04 0.04 76 1021.1
20260901043004 64 290 2.0 8.0 0.00 0.04 0.04 77 1021.2
20260901042504 64 304 2.0 8.0 0.00 0.04 0.04 76 1021.1
20260901042003 64 67 0.0 8.0 0.00 0.04 0.04 76 1020.8
20260901041504 64 67 1.0 8.0 0.00 0.04 0.04 78 1020.2
20260901041004 63 51 4.0 8.0 0.01 0.04 0.04 81 1019.4
20260901040504 63 300 1.0 3.0 0.01 0.04 0.04 82 1020.6
20260901040003 63 297 0.0 5.0 0.01 0.04 0.04 82 1021.0
20260901035502 63 296 2.0 5.0 0.01 0.04 0.04 82 1021.4
20260901035003 63 293 3.0 8.0 0.01 0.04 0.04 82 1021.6
20260901034507 63 283 3.0 8.0 0.01 0.04 0.04 81 1021.8
20260901034009 63 255 4.0 8.0 0.01 0.04 0.04 81 1022.0
20260901033507 64 287 3.0 9.0 0.01 0.04 0.04 80 1021.5
20260901033009 64 295 5.0 12.0 0.01 0.04 0.04 79 1021.7
20260901032507 64 249 8.0 12.0 0.01 0.04 0.04 79 1022.0
20260901032007 64 251 8.0 13.0 0.01 0.04 0.04 78 1022.2
20260901031518 64 254 8.0 15.0 0.01 0.04 0.04 77 1022.3
20260901031012 65 241 9.0 15.0 0.00 0.03 0.03 74 1022.4
20260901030509 66 246 10.0 15.0 0.00 0.03 0.03 71 1022.3
20260901030007 67 234 8.0 18.0 0.00 0.03 0.03 68 1022.2
20260901025507 68 244 12.0 18.0 0.00 0.03 0.03 65 1021.9
20260901025007 69 235 7.0 20.0 0.00 0.03 0.03 64 1021.6
20260901024508 70 254 11.0 20.0 0.00 0.03 0.03 61 1021.6
20260901024007 68 240 8.0 16.0 0.00 0.03 0.03 66 1021.3
20260901023507 68 240 4.0 8.0 0.01 0.03 0.03 68 1021.3
20260901023020 68 1 0.0 1.0 0.01 0.03 0.03 64 1020.6
20260901022512 68 1 0.0 3.0 0.01 0.03 0.03 65 1020.3
20260901022008 68 1 1.0 4.0 0.01 0.03 0.03 64 1020.2
20260901021514 68 1 1.0 4.0 0.01 0.03 0.03 66 1020.1
20260901021010 67 360 1.0 6.0 0.01 0.03 0.03 67 1020.1
20260901020507 67 359 1.0 6.0 0.02 0.03 0.03 69 1019.9
20260901020026 67 354 1.0 4.0 0.03 0.03 0.03 71 1019.8
20260901015512 67 350 1.0 6.0 0.03 0.03 0.03 71 1019.7
20260901015011 67 349 4.0 7.0 0.03 0.03 0.03 70 1019.7
20260901014515 67 337 4.0 7.0 0.03 0.03 0.03 71 1019.8
20260901014009 67 360 3.0 6.0 0.02 0.02 0.02 71 1019.8
20260901013516 67 268 0.0 6.0 0.02 0.02 0.02 72 1019.8
20260901013024 67 268 1.0 6.0 0.02 0.02 0.02 72 1019.9
20260901012510 67 269 3.0 9.0 0.02 0.02 0.02 72 1020.0
20260901012009 67 251 4.0 15.0 0.02 0.02 0.02 70 1020.1
20260901011516 68 278 6.0 19.0 0.02 0.02 0.02 67 1020.1
20260901011014 69 284 12.0 19.0 0.02 0.02 0.02 62 1019.9
20260901010514 72 296 12.0 21.0 0.00 0.00 0.00 54 1019.4
20260901010020 78 266 12.0 21.0 0.00 0.00 0.00 41 1019.6
20260901005515 81 287 2.0 0.0 0.00 0.00 0.00 30 1019.5
20260901005014 81 96 0.0 5.0 0.00 0.00 0.00 30 1019.0
20260901004513 81 97 2.0 5.0 0.00 0.00 0.00 31 1018.7
20260901004012 81 97 1.0 4.0 0.00 0.00 0.00 31 1018.7
20260901003512 81 96 2.0 7.0 0.00 0.00 0.00 30 1018.7
20260901003016 82 96 3.0 7.0 0.00 0.00 0.00 30 1018.7
20260901002516 82 98 3.0 7.0 0.00 0.00 0.00 29 1018.7
20260901002016 82 96 4.0 8.0 0.00 0.00 0.00 29 1018.7
20260901001519 82 94 4.0 7.0 0.00 0.00 0.00 29 1018.6
20260901001014 82 99 4.0 7.0 0.00 0.00 0.00 29 1018.6
20260901000514 82 98 4.0 8.0 0.00 0.00 0.00 29 1018.6
20260901000016 82 94 4.0 8.0 0.00 0.00 0.00 28 1018.7
20260831235518 83 98 4.0 10.0 0.00 0.00 0.00 30 1018.7
20260831235016 83 94 4.0 11.0 0.00 0.00 0.00 29 1018.7
20260831234518 83 93 5.0 11.0 0.00 0.00 0.00 28 1018.7
20260831234017 83 63 3.0 10.0 0.00 0.00 0.00 28 1018.7
20260831233519 84 113 4.0 13.0 0.00 0.00 0.00 27 1018.6
20260831233018 84 98 5.0 13.0 0.00 0.00 0.00 29 1018.6
20260831232518 85 124 5.0 11.0 0.00 0.00 0.00 28 1018.7
20260831232016 84 105 6.0 11.0 0.00 0.00 0.00 28 1018.6
20260831231521 84 102 7.0 13.0 0.00 0.00 0.00 27 1018.7
20260831231023 84 135 7.0 13.0 0.00 0.00 0.00 27 1018.7
20260831230520 84 105 4.0 8.0 0.00 0.00 0.00 26 1018.6
20260831230024 85 92 3.0 8.0 0.00 0.00 0.00 28 1018.7
20260831225521 86 106 4.0 8.0 0.00 0.00 0.00 26 1018.8
20260831225022 86 170 3.0 8.0 0.00 0.00 0.00 26 1018.9
20260831224524 85 150 3.0 6.0 0.00 0.00 0.00 27 1019.0
20260831224022 85 101 1.0 7.0 0.00 0.00 0.00 26 1018.9
20260831223521 85 96 4.0 7.0 0.00 0.00 0.00 28 1019.0
20260831223021 84 89 4.0 8.0 0.00 0.00 0.00 29 1019.1
20260831222521 84 74 4.0 8.0 0.00 0.00 0.00 28 1019.0
20260831222023 83 52 3.0 7.0 0.00 0.00 0.00 28 1019.1
20260831221518 84 94 2.0 7.0 0.00 0.00 0.00 30 1019.2
20260831221018 84 75 2.0 10.0 0.00 0.00 0.00 29 1019.2
20260831220518 85 63 3.0 10.0 0.00 0.00 0.00 28 1019.2
20260831220022 85 89 2.0 6.0 0.00 0.00 0.00 29 1019.3
20260831215521 85 60 2.0 8.0 0.00 0.00 0.00 29 1019.3
20260831215020 84 42 5.0 8.0 0.00 0.00 0.00 28 1019.4
20260831214522 84 98 1.0 5.0 0.00 0.00 0.00 31 1019.4
20260831214021 83 94 2.0 7.0 0.00 0.00 0.00 29 1019.4
20260831213528 83 95 3.0 8.0 0.00 0.00 0.00 31 1019.6
20260831213023 82 96 4.0 8.0 0.00 0.00 0.00 33 1019.6
20260831212523 82 103 3.0 9.0 0.00 0.00 0.00 33 1019.7
20260831212021 83 60 4.0 9.0 0.00 0.00 0.00 31 1019.7
20260831211524 83 44 4.0 9.0 0.00 0.00 0.00 31 1019.8
20260831211023 83 55 3.0 9.0 0.00 0.00 0.00 31 1019.9
20260831210523 82 50 3.0 7.0 0.00 0.00 0.00 31 1019.9
20260831210023 82 32 3.0 7.0 0.00 0.00 0.00 31 1020.0
20260831205522 82 63 2.0 4.0 0.00 0.01 0.00 32 1020.1
20260831205025 82 63 1.0 6.0 0.00 0.01 0.00 32 1020.2
20260831204506 82 94 1.0 5.0 0.00 0.01 0.00 36 1020.3
20260831204005 81 97 2.0 5.0 0.00 0.01 0.00 34 1020.4
20260831203504 81 105 2.0 5.0 0.00 0.01 0.00 34 1020.5
20260831203006 81 106 1.0 5.0 0.00 0.01 0.00 33 1020.6
20260831202506 81 106 1.0 6.0 0.00 0.01 0.00 35 1020.6
20260831202004 81 108 2.0 6.0 0.00 0.01 0.00 33 1020.6
20260831201505 81 92 2.0 7.0 0.00 0.01 0.00 35 1020.8
20260831201004 81 91 3.0 7.0 0.00 0.01 0.00 34 1020.9
20260831200504 81 87 2.0 5.0 0.00 0.01 0.00 33 1020.8
20260831200008 81 110 2.0 6.0 0.00 0.01 0.00 36 1020.8
20260831195510 81 112 3.0 6.0 0.00 0.01 0.00 33 1020.9
20260831195007 82 121 2.0 4.0 0.00 0.01 0.00 31 1020.9
20260831194507 81 121 2.0 4.0 0.00 0.01 0.00 32 1021.0
20260831194008 81 122 2.0 4.0 0.00 0.01 0.00 33 1021.1
20260831193506 81 120 1.0 4.0 0.00 0.01 0.00 34 1021.1
20260831193012 81 119 2.0 4.0 0.00 0.01 0.00 32 1021.2
20260831192513 80 115 0.0 2.0 0.00 0.01 0.00 34 1021.3
20260831192009 80 115 1.0 3.0 0.00 0.01 0.00 33 1021.4
20260831191519 80 124 0.0 3.0 0.00 0.01 0.00 35 1021.5
20260831191008 79 124 1.0 5.0 0.00 0.01 0.00 35 1021.5
20260831190507 79 124 2.0 5.0 0.00 0.01 0.00 34 1021.6
20260831190005 79 125 1.0 3.0 0.00 0.01 0.00 35 1021.7
20260831185508 79 126 1.0 4.0 0.00 0.01 0.00 34 1021.7
20260831185006 79 125 2.0 5.0 0.00 0.01 0.00 36 1021.8
20260831184512 79 126 1.0 5.0 0.00 0.01 0.00 34 1021.7
20260831184013 79 150 1.0 5.0 0.00 0.01 0.00 35 1021.8
20260831183512 79 204 1.0 6.0 0.00 0.01 0.00 34 1021.8
20260831183010 79 204 3.0 6.0 0.00 0.01 0.00 33 1021.8
20260831182513 79 203 1.0 3.0 0.00 0.01 0.00 34 1021.8
20260831182009 79 205 1.0 4.0 0.00 0.01 0.00 34 1021.9
20260831181512 78 205 0.0 4.0 0.00 0.01 0.00 34 1022.0
20260831181012 78 205 0.0 5.0 0.00 0.01 0.00 35 1022.0
20260831180512 78 206 0.0 5.0 0.00 0.01 0.00 34 1022.0
20260831180011 78 186 3.0 5.0 0.00 0.01 0.00 35 1022.1
20260831175511 78 90 1.0 3.0 0.00 0.01 0.00 35 1022.1
20260831175011 77 88 1.0 4.0 0.00 0.01 0.00 37 1022.1
20260831174507 77 87 1.0 4.0 0.00 0.01 0.00 37 1022.1
20260831174007 77 84 1.0 5.0 0.00 0.01 0.00 36 1022.2
20260831173505 77 84 1.0 5.0 0.00 0.01 0.00 38 1022.2
20260831173015 77 84 1.0 4.0 0.00 0.01 0.00 37 1022.2
20260831172510 77 84 2.0 5.0 0.00 0.01 0.00 39 1022.2
20260831172014 76 49 3.0 5.0 0.00 0.01 0.00 40 1022.2
20260831171514 76 99 3.0 6.0 0.00 0.01 0.00 42 1022.2
20260831171011 76 100 4.0 6.0 0.00 0.01 0.00 40 1022.3
20260831170509 76 92 2.0 5.0 0.00 0.01 0.00 38 1022.4
20260831170016 77 84 4.0 5.0 0.00 0.01 0.00 42 1022.3
20260831165511 77 65 1.0 5.0 0.00 0.01 0.00 42 1022.4
20260831165008 77 62 1.0 4.0 0.00 0.01 0.00 43 1022.3
20260831164513 77 65 2.0 5.0 0.00 0.01 0.00 42 1022.2
20260831164013 77 66 2.0 5.0 0.00 0.01 0.00 44 1022.2
20260831163511 78 1 1.0 3.0 0.00 0.01 0.00 39 1022.2
20260831163010 78 1 1.0 3.0 0.00 0.01 0.00 41 1022.2
20260831162508 78 1 1.0 3.0 0.00 0.01 0.00 41 1022.0
20260831162008 77 1 0.0 2.0 0.00 0.01 0.00 41 1022.0
20260831161509 77 1 1.0 3.0 0.00 0.01 0.00 38 1022.0
20260831161009 77 1 1.0 3.0 0.00 0.01 0.00 39 1022.0
20260831160509 77 1 1.0 5.0 0.00 0.01 0.00 39 1022.0
20260831160009 77 1 0.0 5.0 0.00 0.01 0.00 39 1022.0
20260831155511 78 281 1.0 4.0 0.00 0.01 0.00 39 1021.9
20260831155009 78 278 1.0 4.0 0.00 0.01 0.00 40 1021.8
20260831154511 78 276 1.0 3.0 0.00 0.01 0.00 39 1021.8
20260831154012 78 270 0.0 3.0 0.00 0.01 0.00 38 1021.9
20260831153515 78 269 1.0 3.0 0.00 0.01 0.00 40 1021.9
20260831153014 77 268 0.0 3.0 0.00 0.01 0.00 41 1021.8
20260831152512 76 268 1.0 5.0 0.00 0.01 0.00 43 1021.8
20260831152011 75 267 0.0 5.0 0.00 0.01 0.00 46 1021.8
20260831151511 74 266 2.0 5.0 0.00 0.01 0.00 46 1021.8
20260831151010 73 263 1.0 5.0 0.00 0.01 0.00 48 1021.8
20260831150513 73 260 3.0 5.0 0.00 0.01 0.00 47 1021.8
20260831150015 73 225 2.0 5.0 0.00 0.01 0.00 50 1021.9
20260831145512 72 220 2.0 5.0 0.00 0.01 0.00 51 1021.9
20260831145011 71 219 3.0 5.0 0.00 0.01 0.00 53 1021.9
20260831144511 70 141 2.0 4.0 0.00 0.01 0.00 55 1021.9
20260831144011 69 122 2.0 4.0 0.00 0.01 0.00 57 1021.8
20260831143511 68 105 1.0 3.0 0.00 0.01 0.00 59 1021.8
20260831143010 68 105 1.0 3.0 0.00 0.01 0.00 59 1021.7
20260831142509 68 104 0.0 2.0 0.00 0.01 0.00 59 1021.6
20260831142009 68 150 0.0 3.0 0.00 0.01 0.00 60 1021.6
20260831141514 67 161 0.0 4.0 0.00 0.01 0.00 60 1021.5
20260831141013 67 161 1.0 4.0 0.00 0.01 0.00 62 1021.6
20260831140514 67 151 2.0 4.0 0.00 0.01 0.00 63 1021.6
20260831140015 66 150 1.0 3.0 0.00 0.01 0.00 63 1021.6
20260831135513 66 150 1.0 3.0 0.00 0.01 0.00 63 1021.5
20260831135013 66 150 1.0 3.0 0.00 0.01 0.00 63 1021.4
20260831134518 66 150 1.0 2.0 0.00 0.01 0.00 62 1021.5
20260831134014 66 150 0.0 3.0 0.00 0.01 0.00 62 1021.4
20260831133513 66 150 1.0 3.0 0.00 0.01 0.00 63 1021.2
20260831133027 66 150 1.0 2.0 0.00 0.01 0.00 62 1021.2
20260831132519 66 150 0.0 3.0 0.00 0.01 0.00 62 1021.0
20260831132018 65 150 1.0 3.0 0.00 0.01 0.00 62 1021.0
20260831131517 65 150 0.0 5.0 0.00 0.01 0.00 63 1020.9
20260831131015 65 150 2.0 5.0 0.00 0.01 0.00 63 1020.8
20260831130514 64 115 2.0 4.0 0.00 0.01 0.00 63 1020.7
20260831130019 64 114 1.0 3.0 0.00 0.01 0.00 64 1020.7
20260831125523 64 113 0.0 2.0 0.00 0.01 0.00 64 1020.7
20260831125021 64 113 0.0 4.0 0.00 0.01 0.00 64 1020.6
20260831124536 63 113 1.0 4.0 0.00 0.01 0.00 65 1020.6
20260831124020 63 112 1.0 4.0 0.00 0.01 0.00 67 1020.4
20260831123516 62 111 3.0 4.0 0.00 0.01 0.00 69 1020.4
20260831123017 61 98 1.0 4.0 0.00 0.01 0.00 71 1020.4
20260831122518 61 95 0.0 3.0 0.00 0.01 0.00 71 1020.4
20260831122018 61 93 0.0 3.0 0.00 0.01 0.00 71 1020.3
20260831121524 61 91 1.0 2.0 0.00 0.01 0.00 72 1020.2
20260831121024 61 91 1.0 3.0 0.00 0.01 0.00 70 1020.2
20260831120526 61 91 1.0 3.0 0.00 0.01 0.00 69 1020.2
20260831120021 62 91 0.0 2.0 0.00 0.01 0.00 67 1020.1
20260831115520 62 91 0.0 1.0 0.00 0.01 0.00 66 1020.2
20260831115023 63 91 0.0 1.0 0.00 0.01 0.00 66 1020.2
20260831114535 63 91 0.0 5.0 0.00 0.01 0.00 65 1020.2
20260831114022 63 91 2.0 5.0 0.00 0.01 0.00 65 1020.3
20260831113521 64 206 0.0 2.0 0.00 0.01 0.00 64 1020.1
20260831113022 64 206 0.0 2.0 0.00 0.01 0.00 64 1019.9
20260831112522 64 206 0.0 2.0 0.00 0.01 0.00 63 1019.9
20260831112021 64 206 0.0 2.0 0.00 0.01 0.00 64 1019.8
20260831111521 64 206 0.0 4.0 0.00 0.01 0.00 64 1019.9
20260831111021 64 206 0.0 7.0 0.00 0.01 0.00 62 1019.7
20260831110521 64 206 3.0 7.0 0.00 0.01 0.00 62 1019.6
20260831110022 64 205 4.0 8.0 0.00 0.01 0.00 62 1019.6
20260831105522 64 207 4.0 8.0 0.00 0.01 0.00 62 1019.6